Printer-friendly version
Follow the MPC on Twitter Follow the MPC on Facebook The MPC blog
Minor Planet Center

MPEC 2007-V02 : 2007 UQ51

The following Minor Planet Electronic Circular may be linked-to from your own Web pages, but must not otherwise be redistributed electronically.

A form allowing access to any MPEC is at the bottom of this page.


Read MPEC 2007-V01 Read MPEC 2007-V03


M.P.E.C. 2007-V02                                Issued 2007 Nov. 1, 13:38 UT

     The Minor Planet Electronic Circulars contain information on unusual
         minor planets and routine data on comets.  They are published
   on behalf of Commission 20 of the International Astronomical Union by the
          Minor Planet Center, Smithsonian Astrophysical Observatory,
                          Cambridge, MA 02138, U.S.A.

             Prepared using the Tamkin Foundation Computer Network

                              MPC@CFA.HARVARD.EDU
          URL http://www.cfa.harvard.edu/iau/mpc.html  ISSN 1523-6714

                                   2007 UQ51

Observations:
     K07U51Q* C2007 10 31.13081 21 50 33.45 -12 19 02.0          19.3   EV002704
     K07U51Q  C2007 10 31.14287 21 50 38.38 -12 18 46.7          20.2   EV002704
     K07U51Q  C2007 10 31.16701 21 50 48.41 -12 18 14.2          19.7   EV002704
     K07U51Q  C2007 10 31.17911 21 50 53.35 -12 17 58.7          20.1   EV002704
     K07U51Q  C2007 11 01.07028 21 57 10.26 -11 58 38.4          19.6 V EV002G96
     K07U51Q  C2007 11 01.07692 21 57 12.99 -11 58 29.7          19.7 V EV002G96
     K07U51Q  C2007 11 01.08356 21 57 15.69 -11 58 21.0          19.8 V EV002G96
     K07U51Q  C2007 11 01.09019 21 57 18.39 -11 58 11.9          19.7 V EV002G96
     K07U51Q  C2007 11 01.21072 21 58 07.65 -11 55 30.0          19.8 R EV002651
     K07U51Q  C2007 11 01.21182 21 58 08.09 -11 55 29.7          19.9 R EV002651
     K07U51Q  C2007 11 01.21292 21 58 08.46 -11 55 28.0          19.7 R EV002651

Observer details:
651 Grasslands Observatory, Tucson.  Observer J. E. McGaha.  0.62-m f/5.1
    Newtonian reflector + CCD.
704 Lincoln Laboratory ETS, New Mexico.  Observers M. Bezpalko, D. Torres,
    R. Kracke, G. Spitz, J. Kistler.  Measurers J. Stuart, S. Scruggs.  1.0-m
    f/2.15 reflector + CCD.
G96 Mt. Lemmon Survey.  Observer R. A. Kowalski.  Measurers E. C. Beshore,
    A. Boattini, G. J. Garradd, A. R. Gibbs, A. D. Grauer, R. E. Hill,
    R. A. Kowalski, S. M. Larson, R. H. McNaught.  1.5-m reflector + CCD.

Orbital elements:
2007 UQ51                                                Earth MOID = 0.0569 AU
Epoch 2007 Oct. 27.0 TT = JDT 2454400.5                 MPC
M   7.84547              (2000.0)            P               Q
n   0.31223541     Peri.  145.29693     +0.99017782     +0.13735342
a   2.1518630      Node   206.84427     -0.13776559     +0.92665009
e   0.5112591      Incl.    3.31523     -0.02384396     +0.34993378
P   3.16           H   20.3           G   0.15           U   9
Residuals in seconds of arc
071031 704  0.9-  0.7-    071101 G96  0.6-  0.6-    071101 651  0.1-  0.7+
071031 704  1.4-  0.9-    071101 G96  0.4-  0.6-    071101 651  0.3-  0.5-
071031 704  0.1-  0.3+    071101 G96  0.6-  0.6-    071101 651  1.5-  0.3-
071031 704  0.9-  0.1+    071101 G96  0.7-  0.3-

Ephemeris:
2007 UQ51                a,e,i = 2.15, 0.51, 3                   q = 1.0517
Date    TT    R. A. (2000) Decl.     Delta      r     Elong.  Phase     V
2007 10 27    21 21.14   -13 40.1    0.263    1.093   105.3    61.3    19.8
2007 11 06    22 30.80   -10 02.9    0.284    1.131   112.6    54.0    19.8
2007 11 16    23 31.68   -05 48.6    0.326    1.178   118.0    47.8    20.0
2007 11 26    00 21.23   -01 45.7    0.388    1.232   120.9    43.4    20.4
2007 12 06    01 01.02   +01 46.3    0.469    1.292   121.3    40.7    20.8
2007 12 16    01 33.81   +04 47.9    0.564    1.356   119.8    39.0    21.3
2007 12 26    02 01.93   +07 24.2    0.674    1.423   117.2    37.9    21.7

Timothy B. Spahr             (C) Copyright 2007 MPC           M.P.E.C. 2007-V02

Read MPEC 2007-V01 Read MPEC 2007-V03


MPEC number:

Enter an MPEC number in one of the following forms:

  • 1997-B01 (the full form)
  • J97B01 (the packed version of the full form)
  • B01 (the abbreviated form)

Valid HTML 4.01!